Date String (YYYY-MM-DD hh:mm:ss) UTC,Instrument flags,Ambient pressure (hPa),Sample flow (lpm),Bypass flow (lpm),Sample temperature (°C),Ambient temperature (°C),ASC tube jacket temperature (°C),LED temperature (°C),Box temperature (°C),Sample RH (%),Span deviation,Mass concentration (μg/m³),Mass concentration (μg/m³),Mass concentration (μg/m³)
DateTimeUTC,F1_M11,P_M11,Q1_M11,Q2_M11,T1_M11,T2_M11,T3_M11,T4_M11,T5_M11,U1_M11,ZSPAN_M11,X0_M11,X2_M11,X1_M11
2022-07-27 11:00:00,,0828.0,5.00,0.00,30.8,28.6,00.0,39.2,32.1,34.4,0000.0,0016.50,0009.00,0008.00
2022-07-27 11:01:00,,0828.1,5.00,0.00,30.8,28.7,00.0,39.2,32.1,34.4,0000.0,0016.93,0009.06,0008.02
2022-07-27 11:02:00,,0828.1,5.00,0.00,30.8,28.8,00.0,39.3,32.1,34.4,0000.0,0017.35,0009.12,0008.04
2022-07-27 11:03:00,,0828.1,5.00,0.00,30.8,28.8,00.0,39.3,32.1,34.6,0000.0,0017.37,0009.22,0008.07
2022-07-27 11:04:00,,0828.1,5.00,0.00,30.8,28.9,00.0,39.3,32.1,34.7,0000.0,0016.89,0009.24,0008.11
2022-07-27 11:05:00,,0828.1,5.00,0.00,30.8,28.9,00.0,39.3,32.2,35.0,0000.0,0016.93,0009.27,0008.13
2022-07-27 11:06:00,,0828.1,5.00,0.00,30.8,29.0,00.0,39.3,32.2,34.9,0000.0,0017.21,0009.33,0008.16
2022-07-27 11:07:00,,0828.1,5.00,0.00,30.8,29.0,00.0,39.4,32.2,34.7,0000.0,0016.93,0009.33,0008.20
2022-07-27 11:08:00,,0828.1,5.00,0.00,30.8,29.1,00.0,39.4,32.2,34.7,0000.0,0018.32,0009.46,0008.25
2022-07-27 11:09:00,,0828.1,5.01,0.00,30.8,29.1,00.0,39.4,32.2,34.7,0000.0,0017.62,0009.50,0008.29
2022-07-27 11:10:00,,0828.1,5.00,0.00,30.8,29.1,00.0,39.4,32.2,34.7,-000.1,0017.92,0009.56,0008.33
2022-07-27 11:11:00,,0828.1,5.01,0.00,30.8,29.2,00.0,39.4,32.3,34.7,-000.0,0019.07,0009.64,0008.36
2022-07-27 11:12:00,,0828.1,5.00,0.00,30.8,29.2,00.0,39.4,32.3,34.6,-000.2,0018.59,0009.62,0008.36
2022-07-27 11:13:00,,0828.1,4.99,0.00,30.8,29.2,00.0,39.4,32.3,34.6,-000.7,0018.49,0009.62,0008.36
2022-07-27 11:14:00,,0828.0,5.00,0.00,30.8,28.7,00.0,39.4,32.3,34.6,-000.6,0018.47,0009.62,0008.35
2022-07-27 11:15:00,,0828.0,5.00,0.00,30.7,28.0,00.0,39.3,32.1,34.7,-000.6,0018.97,0009.68,0008.35
2022-07-27 11:16:00,,0828.0,5.01,0.00,30.7,27.7,00.0,39.3,32.0,35.0,-000.0,0019.68,0009.73,0008.36
2022-07-27 11:17:00,,0828.0,5.00,0.00,30.7,27.7,00.0,39.3,32.0,35.2,0000.3,0019.86,0009.70,0008.36
2022-07-27 11:18:00,,0828.0,4.99,0.00,30.8,27.8,00.0,39.2,32.0,34.7,0000.3,0019.75,0009.75,0008.37
2022-07-27 11:19:00,,0828.1,4.99,0.00,30.9,27.9,00.0,39.2,32.1,34.5,0000.0,0018.78,0009.74,0008.36
2022-07-27 11:20:00,,0828.0,5.01,0.00,31.0,28.0,00.0,39.2,32.1,34.4,0000.0,0018.40,0009.69,0008.33
2022-07-27 11:21:00,,0828.1,5.01,0.00,31.0,28.2,00.0,39.3,32.0,34.5,0000.0,0017.85,0009.64,0008.31
2022-07-27 11:22:00,,0828.1,5.00,0.00,31.0,28.3,00.0,39.3,32.1,34.7,0000.0,0016.71,0009.55,0008.25
2022-07-27 11:23:00,,0828.1,5.00,0.00,31.0,28.4,00.0,39.3,32.1,34.8,0000.0,0016.96,0009.49,0008.19
2022-07-27 11:24:00,,0828.0,5.00,0.00,31.0,28.5,00.0,39.3,32.1,34.8,0000.0,0018.00,0009.46,0008.15
2022-07-27 11:25:00,,0828.0,4.99,0.00,31.0,28.6,00.0,39.4,32.2,35.1,0000.0,0018.04,0009.40,0008.11
2022-07-27 11:26:00,,0828.0,5.01,0.00,31.3,28.7,00.0,39.4,32.3,35.1,0000.0,0018.27,0009.28,0008.02
2022-07-27 11:27:00,,0828.1,4.99,0.00,31.5,28.8,00.0,39.4,32.4,34.7,0000.0,0017.67,0009.14,0007.90
2022-07-27 11:28:00,,0828.1,5.00,0.00,31.7,28.8,00.0,39.4,32.5,34.0,0000.0,0017.23,0009.06,0007.81
2022-07-27 11:29:00,,0828.1,5.00,0.00,31.8,28.9,00.0,39.5,32.5,33.7,0000.0,0017.11,0008.99,0007.74
2022-07-27 11:30:00,,0828.1,5.00,0.00,31.8,28.9,00.0,39.5,32.4,33.7,0000.0,0016.30,0008.86,0007.68
2022-07-27 11:31:00,,0828.1,5.00,0.00,31.8,29.0,00.0,39.6,32.4,33.7,0000.0,0016.33,0008.81,0007.62
2022-07-27 11:32:00,,0828.2,5.00,0.00,31.8,29.0,00.0,39.7,32.4,33.8,0000.0,0016.38,0008.76,0007.56
2022-07-27 11:33:00,,0828.3,5.00,0.00,31.8,29.1,00.0,39.7,32.5,34.0,0000.0,0016.31,0008.70,0007.53
2022-07-27 11:34:00,,0828.2,5.00,0.00,31.8,29.1,00.0,39.8,32.5,34.1,0000.0,0015.78,0008.65,0007.53
2022-07-27 11:35:00,,0828.2,5.00,0.00,31.8,29.2,00.0,39.9,32.5,34.1,0000.0,0014.56,0008.54,0007.50
2022-07-27 11:36:00,,0828.2,5.00,0.00,31.7,29.2,00.0,39.9,32.5,34.1,0000.0,0014.87,0008.50,0007.49
2022-07-27 11:37:00,,0828.3,5.00,0.00,31.7,29.2,00.0,39.9,32.5,34.2,0000.0,0014.47,0008.51,0007.53
2022-07-27 11:38:00,,0828.3,5.00,0.00,31.7,29.3,00.0,39.9,32.6,34.3,0000.0,0014.76,0008.56,0007.59
2022-07-27 11:39:00,,0828.3,5.00,0.00,31.7,29.3,00.0,40.0,32.6,34.3,0000.0,0014.90,0008.57,0007.64
2022-07-27 11:40:00,,0828.3,4.99,0.00,31.6,29.3,00.0,40.0,32.6,34.3,0000.0,0014.41,0008.54,0007.66
2022-07-27 11:41:00,,0828.2,5.00,0.00,31.6,29.3,00.0,40.0,32.6,34.4,0000.0,0014.13,0008.53,0007.69
2022-07-27 11:42:00,,0828.2,5.02,0.00,31.6,29.4,00.0,40.0,32.6,34.5,0000.0,0014.13,0008.55,0007.73
2022-07-27 11:43:00,,0828.2,4.99,0.00,31.6,29.4,00.0,40.0,32.7,34.6,0000.0,0013.98,0008.54,0007.76
2022-07-27 11:44:00,,0828.2,5.00,0.00,31.6,29.2,00.0,40.0,32.6,34.6,0000.0,0013.87,0008.56,0007.80
2022-07-27 11:45:00,,0828.2,4.99,0.00,31.5,28.4,00.0,39.9,32.5,34.7,0000.0,0013.90,0008.62,0007.85
2022-07-27 11:46:00,,0828.3,5.00,0.00,31.4,28.0,00.0,39.9,32.4,34.9,0000.1,0013.98,0008.70,0007.89
2022-07-27 11:47:00,,0828.3,5.01,0.00,31.3,27.9,00.0,39.8,32.3,35.1,0000.0,0013.34,0008.73,0007.92
2022-07-27 11:48:00,,0828.2,5.00,0.00,31.5,27.9,00.0,39.8,32.3,34.8,0000.0,0013.11,0008.71,0007.92
2022-07-27 11:49:00,,0828.3,5.00,0.00,31.6,28.0,00.0,39.8,32.4,34.6,0000.0,0012.94,0008.74,0007.92
2022-07-27 11:50:00,,0828.3,4.99,0.00,31.6,28.1,00.0,39.8,32.3,34.6,0000.0,0012.82,0008.77,0007.96
2022-07-27 11:51:00,,0828.3,5.01,0.00,31.6,28.2,00.0,39.8,32.3,34.6,-000.1,0013.51,0008.85,0008.00
2022-07-27 11:52:00,,0828.3,4.99,0.00,31.6,28.4,00.0,39.8,32.3,34.7,0000.0,0013.55,0008.90,0008.05
2022-07-27 11:53:00,,0828.3,5.01,0.00,31.5,28.5,00.0,39.8,32.3,34.7,-000.1,0013.59,0008.93,0008.11
2022-07-27 11:54:00,,0828.3,4.99,0.00,31.5,28.6,00.0,39.8,32.3,34.6,0000.1,0014.22,0008.97,0008.14
2022-07-27 11:55:00,,0828.3,5.01,0.00,31.5,28.7,00.0,39.8,32.3,34.4,0000.0,0014.25,0008.98,0008.16
2022-07-27 11:56:00,,0828.3,5.01,0.00,31.5,28.8,00.0,39.8,32.3,34.3,-000.2,0014.37,0008.99,0008.18
2022-07-27 11:57:00,,0828.3,4.99,0.00,31.4,28.8,00.0,39.8,32.4,34.4,0000.3,0014.34,0008.99,0008.21
2022-07-27 11:58:00,,0828.3,4.99,0.00,31.4,28.9,00.0,39.8,32.4,34.4,0000.6,0014.42,0009.04,0008.27
2022-07-27 11:59:00,,0828.3,5.00,0.00,31.4,28.9,00.0,39.8,32.4,34.4,0000.5,0014.46,0009.10,0008.35
